www.pogodaiklimat.ru

Погода и климат >> Архив погоды >> Китай >> Хэйлунцзян >> Аньда


ПОГОДА в Аньда

  • Прогноз погоды в Аньда
  • Монитор погоды в Аньда

АРХИВ ПОГОДЫ в Аньда

Время (UTC), дата Ветер
(напр.,м/с)
 
Видим.   Явления Облачность Т
(С)
Тd
(С)
f
(%)
Тe
(С)
Тes
(С)
Комфортность P
(гПа)
Po
(гПа)
Тmin
(С)
Tmax
(С)
R
(мм)
R24
(мм)
S
(см)
18 11.08 С 2 30 км ?/? +19.1 +17.4 90 +21 +21 комфорт 1005.8 988.3 +21.8
21 11.08 С 3 30 км слаб. дождь н/о +17.3 +16.2 93 +17 +17 1006.4 988.8
00 12.08 С 3 30 км 5/5 600 м
[]
+20.0 +16.6 81 +23 +26 комфорт 1007.3 989.8 0.0
03 12.08 С 3 30 км 8/8 600 м
[]
+22.7 +16.3 67 +27 +30 душно 1006.8 989.5
06 12.08 С 3 30 км 9/9 600 м
[]
+23.1 +16.4 66 +28 +29 душно 1006.5 989.2 +17.2
09 12.08 С 2 30 км 8/8 600 м
[]
+22.5 +15.8 66 +27 +27 душно 1006.7 989.4
12 12.08 С 1 30 км 9/9 600 м
[]
+20.2 +17.2 83 +24 +24 комфорт 1007.6 990.1
18 12.08 В 1 30 км ?/? +17.8 +17.0 95 +19 +19 1007.2 989.6 +23.6
21 12.08 В 1 30 км н/о +18.5 +17.9 96 +20 +20 1006.9 989.4
00 13.08 С 2 30 км 9/9 600 м
[]
+20.4 +18.2 87 +25 +25 комфорт 1006.8 989.4
03 13.08 В 3 30 км 9/9 600 м
[]
+23.3 +19.2 78 +30 +31 очень
душно
1006.3 989.0
06 13.08 В 3 30 км 9/9 600 м
[]
+24.9 +19.9 74 +30 +31 душно 1005.1 988.0 +16.8
09 13.08 В 2 30 км 9/9 600 м
[]
+23.5 +20.1 81 +29 +29 душно 1004.7 987.5
12 13.08 С 2 28 км 8/8 600 м
[]
+21.8 +20.1 90 +27 +27 душно 1004.8 987.5
18 13.08 С 2 27 км ?/? +20.7 +19.7 94 +26 +26 душно 1002.6 985.4 +25.4
21 13.08 С 2 30 км н/о +20.6 +19.8 95 +26 +26 душно 1002.2 984.9
00 14.08 С 2 27 км 9/9 600 м
[]
+21.9 +20.2 90 +28 +28 душно 1002.1 984.8
03 14.08 С 3 30 км 6/6 600 м
[]
+25.2 +20.2 74 +31 +36 очень
душно
1001.4 984.3
06 14.08 С 2 30 км 8/8 600 м
[]
+27.1 +18.9 61 +32 +35 очень
душно
1001.3 984.3 +20.4
09 14.08 С 2 30 км 6/6 600 м
[]
+26.7 +18.8 62 +32 +32 очень
душно
1000.7 983.7
12 14.08 С 2 30 км 8/8 600 м
[]
+24.7 +19.5 73 +30 +30 очень
душно
1001.4 984.3
18 14.08 С 1 30 км ?/? +19.6 +18.6 94 +23 +23 комфорт 1001.4 984.0 +28.1
21 14.08 С 2 30 км н/о +20.8 +18.6 87 +26 +26 душно 1001.0 983.7
00 15.08 С 2 30 км 5/5 1500 м
[]
+23.7 +19.0 75 +28 +32 душно 1000.8 983.7
03 15.08 СВ 4 30 км 6/6 600 м
[]
+26.7 +19.8 66 +33 +37 очень
душно
1000.2 983.2
06 15.08 С 4 30 км 8/8 600 м
[]
+27.0 +19.6 64 +33 +34 очень
душно
998.9 982.0 +19.5
09 15.08 С 4 30 км {дождь, морось} 3/3 600 м
[]
+26.9 +19.8 65 +33 +34 очень
душно
998.0 981.1
12 15.08 СВ 1 30 км в посл. час дождь {морось} 6/6 600 м
[]
+22.3 +20.0 87 +28 +28 душно 998.1 980.9
18 15.08 С 3 30 км ?/? +20.0 +19.2 95 +24 +24 комфорт 996.2 978.9 +27.7
21 15.08 С 3 30 км н/о +19.6 +18.6 94 +22 +22 комфорт 995.8 978.5
00 16.08 С 3 30 км слаб. дождь 10/10 1500 м
[]
+19.9 +18.0 89 +23 +23 комфорт 995.6 978.3 0.0
03 16.08 С 4 10 км слаб. дождь 10/10 600 м
[]
+19.2 +17.7 91 +21 +21 комфорт 995.0 977.7
06 16.08 С 3 11 км дождь 10/10 1500 м
[]
+18.7 +17.9 95 +20 +20 993.9 976.6 +18.6 9
09 16.08 С 4 9000 м слаб. дождь 9/9 1500 м
[]
+19.5 +18.8 96 +22 +22 комфорт 993.3 976.1
12 16.08 С 3 30 км {дождь} 9/9 1500 м
[]
+19.0 +18.5 97 +21 +21 комфорт 993.2 975.9 4
18 16.08 С 2 6000 м слаб. дождь ?/? +17.9 +17.6 98 +18 +18 992.5 975.2 +20.0 0.6
21 16.08 С 3 н/о слаб. дождь н/о +17.0 +16.5 97 +17 +17 992.7 975.3
00 17.08 С 4 30 км 10/10 600 м
[]
+18.0 +16.5 91 +18 +18 993.1 975.8 0.4
03 17.08 СЗ 3 11 км слаб. дождь 10/10 600 м
[]
+18.2 +17.4 95 +19 +19 993.5 976.2
06 17.08 СЗ 3 13 км слаб. дождь 10/10 600 м
[]
+18.5 +17.0 91 +19 +19 994.0 976.7 +17.0 1
09 17.08 СЗ 3 11 км слаб. дождь 10/10 600 м
[]
+17.9 +17.1 95 +18 +18 995.0 977.6
12 17.08 З 2 24 км слаб. дождь 10/10 600 м
[]
+17.2 +16.4 95 +18 +18 996.6 979.2 1
18 17.08 З 4 30 км ?/? +16.8 +15.2 90 +16 +16 998.5 981.0 +18.7 1
21 17.08 З 5 30 км н/о +16.6 +14.3 86 +16 +16 999.8 982.3
00 18.08 З 3 30 км 9/9 600 м
[]
+18.2 +14.9 81 +19 +19 1001.7 984.2 1
03 18.08 З 2 30 км 8/8 600 м
[]
+20.6 +14.5 68 +24 +27 комфорт 1003.0 985.6
06 18.08 З 3 30 км 8/8 600 м
[]
+21.1 +13.8 63 +24 +25 комфорт 1003.6 986.3 +16.4
09 18.08 З 2 30 км 9/9 600 м
[]
+21.4 +13.8 62 +24 +24 комфорт 1004.4 987.1
12 18.08 З 1 30 км 10/10 600 м
[]
+19.7 +15.8 78 +23 +23 комфорт 1005.9 988.4

 

Местоположение метеостанции Аньда (Хэйлунцзян, Китай): широта 46.38 долгота 125.31 высота над уровнем моря 150 м.

В архиве по умолчанию представлена погода в Аньда за последнюю неделю. Архивные данные за месяц целиком и за предыдущие месяцы, начиная с января 2011 года, Вы можете получить, выбрав интересующий диапазон дат из раскрывающегося списка и нажав кнопку "Ввод!".


*Определитесь, кто Вы:
робот инопланетянин человек

Внимание! Время в таблицах - всемирное. Для получения местного времени необходимо прибавить поправку, которая равна 8 ч.

Смотрите также архив погоды в соседних городах и на ближайших метеорологических станциях:

Погода в Харбине (Хэйлунцзян, Китай) (132 км)
Погода в Тайлае (Хэйлунцзян, Китай) (146 км)
Погода в Цянь Горлос (Гирин, Китай) (149 км)
Погода в Цицикаре (Хэйлунцзян, Китай) (154 км)
Погода в Хайлуне (Хэйлунцзян, Китай) (171 км)
Погода в Кэшане (Хэйлунцзян, Китай) (191 км)
Погода в Шанчжи (Хэйлунцзян, Китай) (243 км)
Погода в Чанлине (Гирин, Китай) (259 км)
Погода в Тунхэ (Хэйлунцзян, Китай) (267 км)
Погода в Чанчуне (Гирин, Китай) (276 км)

Пояснения к столбцам:

Ветер - указаны скорость ветра в м/с - средняя за 10 мин, порывы в срок и между сроками (в фигурных скобках) и направление, откуда дует ветер: С - северный, СВ - северо-восточный, В - восточный, ЮВ - юго-восточный, Ю - южный, ЮЗ - юго-западный, З - западный, СЗ - северо-западный.
Видимость - горизонтальная дальность видимости в метрах или километрах. При видимости от 1 до 10 км при отсутствии осадков обычно наблюдается дымка, при ухудшении видимости до 1 км и менее - туман. В сухую погоду видимость может ухудшаться дымом, пылью или мглою.
Явления - указаны атмосферные явления, наблюдавшиеся в срок или в последний час перед сроком; фигурными скобками обозначены явления, наблюдавшиеся между сроками (за 1-3 часа до срока); квадратными скобками обозначены град или гололедные отложения с указанием их диаметра в мм.
Облачность - указаны через наклонную черту общая и нижняя облачность в баллах и высота нижней границы облаков в метрах; квадратными скобками обозначены формы облаков: Ci - перистые, Cs - перисто-слоистые, Cc - перисто-кучевые, Ac - высококучевые, As - высокослоистые, Sc - слоисто-кучевые, Ns - слоисто-дождевые, Cu - кучевые, Cb - кучево-дождевые. Подробнее классификацию облаков см. в Атласе облаков (PDF).
T - Температура воздуха - температура, измеренная на высоте 2 м над землей.
Td - Температура точки росы - температура, при понижении до которой содержащийся в воздухе водяной пар достигнет насыщения.
f - Относительная влажность воздуха - влажноcть воздуха, измеренная на высоте 2 м над землей.
Te - Эффективная температура - температура, которую ощущает одетый по сезону человек в тени. Характеристика душности погоды. При расчете учитывается влияние влажности воздуха и скорости ветра на теплоощущения человека.
Tes - Эффективная температура на солнце - температура, которую ощущает человек, с поправкой на солнечный нагрев. Характеристика знойности погоды. Зависит от высоты солнца над горизонтом, облачности и скорости ветра. Ночью, в пасмурную погоду, а также при ветре 12 м/с и более поправка равна нулю.
P - Атмосферное давление - приведенное к уровню моря атмосферное давление.
Po - Атмосферное давление - измеренное на уровне метеостанции атмосферное давление.
Tmin - Минимальная температура - минимум температуры воздуха на высоте 2 м над землей.
Tmax - Максимальная температура - максимум температуры воздуха на высоте 2 м над землей.
R - Количество осадков - Количество выпавших осадков за период времени, мм. При наведении курсора мыши на число - период времени, за который выпало указанное количество осадков.
R24 - Количество осадков - Количество выпавших осадков за 24 часа, мм.
S - Снежный покров - Высота снежного покрова, см. При наведении курсора мыши на число - состояние снежного покрова и степень покрытия местности в баллах.